�N����,����,�~����,�C��,���x,�C��,����,���ϕ���,�ő�u�ԕ���,�ő厞����,���˗�,�I�_���x,�n�����x,�ő啗���N��,DTYPE
"21/04/07","00:10",0.0,11.2,95.6,1012.3,340.5,1.0,1.2,332.5,0.00,10.6,130.0,"00:01:04",1
"21/04/07","00:20",0.0,11.1,95.7,1012.6,322.2,0.8,1.4,339.5,0.00,10.5,130.0,"00:13:02",1
"21/04/07","00:30",0.0,11.1,95.8,1012.6,318.8,1.5,2.0,304.9,0.00,10.5,130.0,"00:29:24",1
"21/04/07","00:40",0.0,11.0,96.0,1012.3,320.7,1.6,2.2,328.4,0.00,10.4,130.0,"00:30:44",1
"21/04/07","00:50",0.0,10.8,96.1,1012.1,316.8,2.1,2.9,330.0,0.00,10.2,130.0,"00:43:50",1
"21/04/07","01:00",0.0,10.7,96.2,1012.3,300.3,1.3,2.0,324.1,0.00,10.2,130.0,"00:50:52",1
"21/04/07","01:10",0.0,10.6,96.3,1012.3,300.8,1.5,2.4,325.9,0.00,10.1,130.0,"01:07:48",1
"21/04/07","01:20",0.0,10.5,96.4,1012.3,310.4,1.7,2.7,322.3,0.00,10.0,130.0,"01:12:22",1
"21/04/07","01:30",0.0,10.4,96.5,1011.9,299.4,1.7,2.9,341.5,0.00,9.9,130.0,"01:22:46",1
"21/04/07","01:40",0.0,10.2,96.5,1012.1,290.2,1.5,2.7,302.8,0.00,9.7,130.0,"01:37:54",1
"21/04/07","01:50",0.0,10.0,96.6,1012.1,300.2,1.8,2.2,307.8,0.00,9.5,130.0,"01:43:04",1
"21/04/07","02:00",0.0,9.8,96.7,1011.9,317.1,2.5,3.2,328.6,0.00,9.3,130.0,"01:56:30",1
"21/04/07","02:10",0.0,9.7,96.7,1011.9,298.2,2.2,3.3,321.3,0.00,9.2,130.0,"02:05:24",1
"21/04/07","02:20",0.0,9.3,96.9,1011.4,314.8,2.6,4.2,331.0,0.00,8.9,130.0,"02:14:34",1
"21/04/07","02:30",0.0,9.2,96.9,1011.6,318.7,3.2,4.1,336.2,0.00,8.8,130.0,"02:24:16",1
"21/04/07","02:40",0.0,9.0,96.9,1011.9,324.7,3.0,4.7,335.7,0.00,8.6,130.0,"02:32:46",1
"21/04/07","02:50",0.0,8.9,97.0,1011.9,320.5,2.6,4.8,319.5,0.00,8.5,130.0,"02:40:32",1
"21/04/07","03:00",0.0,8.8,97.0,1011.6,322.4,2.2,4.1,325.3,0.00,8.4,130.0,"02:51:30",1
"21/04/07","03:10",0.0,8.8,97.0,1011.9,322.0,3.2,4.4,336.1,0.00,8.4,130.0,"03:09:52",1
"21/04/07","03:20",0.0,8.7,96.9,1011.6,326.4,2.5,3.6,327.5,0.00,8.3,130.0,"03:13:20",1
"21/04/07","03:30",0.0,8.7,97.0,1011.9,327.6,2.6,3.5,314.5,0.00,8.3,130.0,"03:28:32",1
"21/04/07","03:40",0.0,8.7,97.0,1011.9,317.0,2.5,3.3,325.3,0.00,8.3,130.0,"03:30:40",1
"21/04/07","03:50",0.0,8.7,97.0,1011.9,329.6,1.7,2.7,324.9,0.00,8.3,130.0,"03:42:16",1
"21/04/07","04:00",0.0,8.3,97.0,1011.9,330.8,1.5,2.7,335.9,0.00,7.9,130.0,"03:53:36",1
"21/04/07","04:10",0.0,8.1,97.0,1012.1,330.0,1.6,3.2,337.1,0.00,7.7,130.0,"04:07:52",1
"21/04/07","04:20",0.0,7.9,97.1,1012.1,331.8,1.3,2.2,340.0,0.00,7.5,130.0,"04:12:40",1
"21/04/07","04:30",0.0,7.6,97.1,1011.9,306.6,1.1,1.4,340.2,0.00,7.2,130.0,"04:20:08",1
"21/04/07","04:40",0.0,7.4,97.3,1012.6,328.7,1.5,2.8,335.2,0.00,7.0,130.0,"04:32:00",1
"21/04/07","04:50",0.0,7.4,97.4,1012.3,308.6,1.8,3.1,294.3,0.00,7.1,130.0,"04:49:12",1
"21/04/07","05:00",0.0,7.4,97.2,1012.6,314.8,1.6,2.7,319.6,0.00,7.0,130.0,"04:51:12",1
"21/04/07","05:10",0.0,7.0,97.3,1011.9,302.8,1.0,1.8,339.3,0.00,6.6,130.0,"05:07:20",1
"21/04/07","05:20",0.0,6.7,97.3,1012.1,315.2,1.5,2.1,313.0,0.00,6.3,130.0,"05:16:48",1
"21/04/07","05:30",0.0,6.4,97.4,1011.9,324.9,1.0,1.8,317.3,0.00,6.1,130.0,"05:28:40",1
"21/04/07","05:40",0.0,6.1,97.5,1011.9,327.8,1.7,2.4,341.3,0.00,5.8,130.0,"05:36:48",1
"21/04/07","05:50",0.0,6.1,97.6,1012.1,321.0,2.1,2.8,317.1,0.00,5.8,130.0,"05:45:28",1
"21/04/07","06:00",0.0,6.0,97.6,1012.1,314.0,1.5,2.7,315.2,0.00,5.7,130.0,"05:50:40",1
"21/04/07","06:10",0.0,6.0,97.8,1011.9,312.8,2.0,3.3,336.5,0.00,5.7,130.0,"06:07:28",1
"21/04/07","06:20",0.0,6.3,97.8,1012.1,311.1,2.7,3.6,323.9,0.00,6.0,130.0,"06:11:52",1
"21/04/07","06:30",0.0,6.4,97.8,1011.9,317.6,2.8,4.0,328.2,0.00,6.1,130.0,"06:27:12",1
"21/04/07","06:40",0.0,6.9,97.8,1012.3,317.4,2.1,2.9,322.5,0.01,6.6,130.0,"06:37:52",1
"21/04/07","06:50",0.0,7.4,97.6,1012.8,322.0,2.5,3.1,328.2,0.02,7.1,130.0,"06:42:24",1
"21/04/07","07:00",0.0,7.8,97.5,1013.0,321.3,2.8,4.1,321.4,0.03,7.5,130.0,"06:53:04",1
"21/04/07","07:10",0.0,8.2,97.2,1012.6,321.0,3.0,3.7,337.4,0.05,7.8,130.0,"07:08:00",1
"21/04/07","07:20",0.0,8.6,96.7,1012.8,317.6,3.2,4.9,330.6,0.08,8.1,130.0,"07:19:44",1
"21/04/07","07:30",0.0,9.0,95.8,1013.3,324.9,4.4,6.2,315.9,0.11,8.4,130.0,"07:21:36",1
"21/04/07","07:40",0.0,9.7,95.1,1013.3,323.3,3.7,6.4,330.0,0.14,9.0,130.0,"07:30:24",1
"21/04/07","07:50",0.0,10.2,93.7,1013.5,322.1,3.2,4.5,332.3,0.16,9.3,130.0,"07:43:12",1
"21/04/07","08:00",0.0,10.4,91.7,1014.0,328.3,3.6,5.6,330.4,0.19,9.1,130.0,"07:55:28",1
"21/04/07","08:10",0.0,11.0,88.2,1014.0,333.7,2.7,5.2,329.1,0.23,9.2,130.0,"08:06:32",1
"21/04/07","08:20",0.0,11.3,83.6,1014.0,335.7,2.5,5.4,312.7,0.26,8.7,130.0,"08:15:04",1
"21/04/07","08:30",0.0,12.3,78.3,1014.0,349.5,1.5,2.9,9.3,0.29,8.7,130.0,"08:24:32",1
"21/04/07","08:40",0.0,12.7,74.0,1014.2,317.2,1.6,3.5,5.9,0.32,8.2,130.0,"08:39:12",1
"21/04/07","08:50",0.0,12.4,71.9,1014.0,340.9,2.7,5.5,325.4,0.35,7.5,130.0,"08:43:12",1
"21/04/07","09:00",0.0,12.6,71.8,1013.5,319.3,3.0,6.3,342.2,0.38,7.7,130.0,"08:54:40",1
"21/04/07","09:10",0.0,12.7,70.5,1013.8,313.0,2.5,4.9,323.8,0.39,7.5,130.0,"09:09:28",1
"21/04/07","09:20",0.0,13.1,69.2,1013.3,319.8,2.0,4.7,334.8,0.41,7.6,130.0,"09:13:20",1
"21/04/07","09:30",0.0,13.3,68.1,1013.5,333.6,2.6,6.3,339.7,0.44,7.6,130.0,"09:22:32",1
"21/04/07","09:40",0.0,13.3,67.6,1013.3,325.2,2.7,4.4,340.1,0.46,7.5,130.0,"09:34:32",1
"21/04/07","09:50",0.0,13.9,65.4,1013.3,349.2,2.3,5.0,343.4,0.48,7.6,130.0,"09:43:52",1
"21/04/07","10:00",0.0,14.3,64.3,1012.8,341.4,2.3,4.7,341.9,0.50,7.7,130.0,"09:54:24",1
"21/04/07","10:10",0.0,14.5,63.3,1013.0,337.0,2.6,5.1,325.8,0.52,7.7,130.0,"10:05:28",1
"21/04/07","10:20",0.0,15.0,61.6,1013.0,334.1,2.0,5.9,331.5,0.54,7.7,130.0,"10:13:28",1
"21/04/07","10:30",0.0,15.1,61.4,1012.6,335.6,2.6,6.0,335.9,0.55,7.8,130.0,"10:24:40",1
"21/04/07","10:40",0.0,15.1,59.0,1012.6,342.1,2.8,5.7,329.0,0.57,7.2,130.0,"10:31:44",1
"21/04/07","10:50",0.0,15.4,58.8,1012.1,342.7,3.0,5.5,344.7,0.58,7.4,130.0,"10:44:48",1
"21/04/07","11:00",0.0,16.2,56.3,1012.3,351.7,2.1,4.5,317.3,0.59,7.5,130.0,"10:54:32",1
"21/04/07","11:10",0.0,17.0,55.5,1011.6,328.9,1.8,4.0,323.8,0.60,8.1,130.0,"11:04:00",1
"21/04/07","11:20",0.0,17.2,51.1,1011.6,14.7,1.3,3.5,54.6,0.60,7.1,130.0,"11:14:48",1
"21/04/07","11:30",0.0,17.6,53.3,1011.6,271.8,1.6,3.2,256.4,0.61,8.0,130.0,"11:24:40",1
"21/04/07","11:40",0.0,17.4,54.4,1011.2,190.7,2.1,3.6,194.5,0.62,8.2,130.0,"11:38:16",1
"21/04/07","11:50",0.0,17.6,53.8,1010.9,192.8,2.2,5.9,128.1,0.62,8.2,130.0,"11:41:44",1
"21/04/07","12:00",0.0,17.6,49.5,1011.2,175.6,1.8,3.7,191.3,0.63,7.0,130.0,"11:51:28",1
"21/04/07","12:10",0.0,18.1,52.0,1010.7,129.3,1.1,4.1,216.1,0.63,8.1,130.0,"12:00:02",1
"21/04/07","12:20",0.0,18.6,51.0,1010.7,192.7,1.6,3.5,214.0,0.63,8.3,130.0,"12:10:08",1
"21/04/07","12:30",0.0,18.6,49.7,1010.4,241.5,1.6,3.7,287.8,0.63,7.9,130.0,"12:25:52",1
"21/04/07","12:40",0.0,19.0,47.8,1010.2,278.9,1.7,3.6,313.6,0.63,7.7,130.0,"12:30:48",1
"21/04/07","12:50",0.0,19.1,47.5,1010.2,282.3,1.7,4.1,338.9,0.63,7.7,130.0,"12:49:36",1
"21/04/07","13:00",0.0,19.4,46.2,1010.0,262.5,1.7,3.2,323.4,0.62,7.6,130.0,"12:53:52",1
"21/04/07","13:10",0.0,19.8,45.0,1009.5,294.4,1.5,5.0,344.9,0.62,7.6,130.0,"13:07:22",1
"21/04/07","13:20",0.0,20.3,43.1,1009.3,283.6,1.3,2.9,327.6,0.61,7.4,130.0,"13:18:40",1
"21/04/07","13:30",0.0,19.8,39.5,1009.0,290.0,2.3,3.9,333.8,0.60,5.7,130.0,"13:27:52",1
"21/04/07","13:40",0.0,19.7,38.9,1009.3,285.7,2.7,4.9,273.3,0.59,5.4,130.0,"13:30:16",1
"21/04/07","13:50",0.0,20.3,38.7,1009.0,255.1,1.6,4.4,252.1,0.57,5.8,130.0,"13:41:52",1
"21/04/07","14:00",0.0,20.8,37.0,1008.8,314.3,1.5,4.1,341.0,0.56,5.6,130.0,"13:50:08",1
"21/04/07","14:10",0.0,20.7,35.2,1008.3,263.0,2.1,7.0,302.4,0.54,4.8,130.0,"14:02:32",1
"21/04/07","14:20",0.0,20.8,35.3,1008.1,287.7,2.1,3.7,338.5,0.53,5.0,130.0,"14:15:04",1
"21/04/07","14:30",0.0,20.8,35.4,1008.3,219.3,2.2,4.9,257.7,0.51,5.0,130.0,"14:28:00",1
"21/04/07","14:40",0.0,20.9,35.7,1007.8,223.8,2.0,4.3,235.7,0.49,5.2,130.0,"14:30:16",1
"21/04/07","14:50",0.0,21.5,33.1,1007.6,254.5,1.5,4.0,241.7,0.48,4.6,130.0,"14:49:12",1
"21/04/07","15:00",0.0,21.0,30.2,1008.1,308.2,3.1,6.6,333.1,0.46,2.9,130.0,"14:51:52",1
"21/04/07","15:10",0.0,20.9,31.5,1007.8,333.3,3.9,6.7,346.0,0.43,3.4,130.0,"15:01:28",1
"21/04/07","15:20",0.0,20.8,30.9,1007.8,355.4,3.1,6.7,330.9,0.41,3.1,130.0,"15:13:36",1
"21/04/07","15:30",0.0,20.6,32.4,1008.1,342.0,3.6,10.0,342.9,0.39,3.6,130.0,"15:23:36",1
"21/04/07","15:40",0.0,20.3,32.2,1008.3,345.8,3.7,7.2,355.7,0.36,3.2,130.0,"15:30:40",1
"21/04/07","15:50",0.0,20.2,31.8,1008.1,344.7,3.2,5.9,331.6,0.33,2.9,130.0,"15:41:52",1
"21/04/07","16:00",0.0,20.4,31.9,1007.8,344.9,2.7,6.5,318.8,0.30,3.2,130.0,"15:51:52",1
"21/04/07","16:10",0.0,20.6,35.4,1007.8,343.4,2.0,4.8,344.7,0.27,4.8,130.0,"16:00:08",1
"21/04/07","16:20",0.0,20.2,31.8,1008.3,351.5,2.6,4.7,4.2,0.25,2.9,130.0,"16:18:40",1
"21/04/07","16:30",0.0,19.9,32.5,1008.1,341.5,3.1,6.5,326.5,0.22,3.0,130.0,"16:22:56",1
"21/04/07","16:40",0.0,19.6,31.9,1008.6,344.9,3.6,7.3,352.7,0.19,2.5,130.0,"16:38:56",1
"21/04/07","16:50",0.0,19.7,33.1,1008.3,345.6,2.5,4.7,330.2,0.16,3.1,130.0,"16:49:44",1
"21/04/07","17:00",0.0,19.2,33.2,1008.3,340.4,3.2,6.3,329.9,0.14,2.7,130.0,"16:52:48",1
"21/04/07","17:10",0.0,19.3,35.1,1008.1,338.3,2.6,5.6,316.9,0.11,3.6,130.0,"17:04:08",1
"21/04/07","17:20",0.0,18.7,37.8,1008.3,345.3,3.9,9.7,343.5,0.09,4.1,130.0,"17:13:20",1
"21/04/07","17:30",0.0,18.3,40.3,1008.6,334.4,3.5,7.1,342.0,0.06,4.6,130.0,"17:29:44",1
"21/04/07","17:40",0.0,17.8,41.6,1008.3,341.3,3.5,6.4,339.3,0.04,4.6,130.0,"17:36:24",1
"21/04/07","17:50",0.0,17.3,43.0,1008.3,337.1,4.2,9.5,346.3,0.03,4.7,130.0,"17:41:52",1
"21/04/07","18:00",0.0,17.0,42.9,1008.6,337.6,3.4,5.9,342.6,0.01,4.3,130.0,"17:59:20",1
"21/04/07","18:10",0.0,16.4,44.3,1009.0,337.9,3.1,6.8,344.3,0.00,4.3,130.0,"18:00:16",1
"21/04/07","18:20",0.0,16.0,45.4,1009.0,342.5,1.8,4.2,335.6,0.00,4.2,130.0,"18:10:32",1
"21/04/07","18:30",0.0,15.6,46.1,1009.7,327.1,1.5,4.0,338.1,0.00,4.1,130.0,"18:20:32",1
"21/04/07","18:40",0.0,15.3,45.9,1009.7,297.6,1.3,3.9,302.1,0.00,3.8,130.0,"18:32:32",1
"21/04/07","18:50",0.0,15.1,45.8,1009.7,300.3,1.8,3.6,273.4,0.00,3.6,130.0,"18:43:04",1
"21/04/07","19:00",0.0,14.9,46.3,1010.0,305.9,2.3,5.5,307.1,0.00,3.5,130.0,"18:51:28",1
"21/04/07","19:10",0.0,14.6,46.9,1010.2,306.2,1.2,2.0,325.8,0.00,3.4,130.0,"19:06:24",1
"21/04/07","19:20",0.0,14.1,47.2,1010.4,311.4,1.5,2.9,314.2,0.00,3.1,130.0,"19:15:20",1
"21/04/07","19:30",0.0,14.0,46.9,1010.7,303.4,1.5,2.5,326.5,0.00,2.9,130.0,"19:23:34",1
"21/04/07","19:40",0.0,13.9,47.7,1010.7,306.4,1.3,3.7,318.8,0.00,3.0,130.0,"19:39:24",1
"21/04/07","19:50",0.0,13.6,48.0,1010.9,29.4,1.2,2.8,325.5,0.00,2.8,130.0,"19:40:08",1
"21/04/07","20:00",0.0,13.4,48.6,1010.9,294.4,0.8,2.2,336.8,0.00,2.8,130.0,"19:58:16",1
"21/04/07","20:10",0.0,13.2,47.0,1010.9,13.2,1.3,2.9,340.1,0.00,2.2,130.0,"20:03:32",1
"21/04/07","20:20",0.0,13.2,46.8,1011.2,0.8,1.6,4.2,359.8,0.00,2.1,130.0,"20:12:56",1
"21/04/07","20:30",0.0,13.1,45.3,1010.9,36.4,1.8,4.9,56.0,0.00,1.6,130.0,"20:21:04",1
"21/04/07","20:40",0.0,12.8,44.6,1011.6,0.3,1.7,3.6,341.2,0.00,1.1,130.0,"20:36:34",1
"21/04/07","20:50",0.0,12.7,44.1,1011.6,5.8,2.1,4.3,77.2,0.00,0.8,130.0,"20:48:40",1
"21/04/07","21:00",0.0,12.7,45.4,1012.1,32.6,2.3,4.4,336.9,0.00,1.2,130.0,"20:57:54",1
"21/04/07","21:10",0.0,12.3,45.9,1012.1,53.3,1.7,3.9,35.9,0.00,1.0,130.0,"21:05:16",1
"21/04/07","21:20",0.0,12.2,45.5,1012.1,68.6,1.6,3.1,69.5,0.00,0.8,130.0,"21:11:06",1
"21/04/07","21:30",0.0,12.1,47.3,1011.6,36.5,1.6,2.6,37.3,0.00,1.3,130.0,"21:27:36",1
"21/04/07","21:40",0.0,12.0,50.5,1011.9,341.7,1.8,3.9,73.2,0.00,2.1,130.0,"21:31:58",1
"21/04/07","21:50",0.0,11.0,53.4,1011.4,298.5,1.3,3.2,319.7,0.00,1.9,130.0,"21:42:56",1
"21/04/07","22:00",0.0,10.5,58.2,1011.2,311.4,1.8,2.4,314.2,0.00,2.7,130.0,"21:50:02",1
"21/04/07","22:10",0.0,9.9,60.9,1011.4,309.3,1.8,2.9,326.0,0.00,2.8,130.0,"22:00:16",1
"21/04/07","22:20",0.0,9.3,62.9,1011.4,306.7,1.5,2.1,322.6,0.00,2.6,130.0,"22:11:36",1
"21/04/07","22:30",0.0,9.2,65.8,1011.4,304.6,1.5,2.7,302.4,0.00,3.2,130.0,"22:23:04",1
"21/04/07","22:40",0.0,9.2,68.1,1011.4,317.4,1.5,2.7,325.6,0.00,3.7,130.0,"22:30:56",1
"21/04/07","22:50",0.0,8.9,69.4,1011.4,290.1,1.5,1.9,271.4,0.00,3.6,130.0,"22:40:48",1
"21/04/07","23:00",0.0,8.8,70.8,1011.4,298.2,1.6,2.8,318.0,0.00,3.8,130.0,"22:53:44",1
"21/04/07","23:10",0.0,8.8,71.9,1011.6,293.2,1.8,2.6,329.5,0.00,4.1,130.0,"23:01:04",1
"21/04/07","23:20",0.0,8.5,72.8,1011.4,313.3,1.8,2.6,325.9,0.00,3.9,130.0,"23:13:20",1
"21/04/07","23:30",0.0,8.4,73.8,1011.6,303.8,1.7,2.4,308.7,0.00,4.0,130.0,"23:24:56",1
"21/04/07","23:40",0.0,8.3,75.2,1011.9,297.8,1.8,2.5,322.8,0.00,4.2,130.0,"23:35:44",1
"21/04/07","23:50",0.0,9.5,75.1,1012.1,347.3,2.1,5.2,6.4,0.00,5.4,130.0,"23:46:40",1
"21/04/07","24:00",0.0,10.0,73.1,1011.6,346.2,1.5,2.2,354.2,0.00,5.4,130.0,"23:51:36",1
